Year,Month,Day,Hour,Minute,Value (Times are PST for temperature in C)
2009,06,03,00,00,14.30
2009,06,03,00,01,14.30
2009,06,03,00,02,14.30
2009,06,03,00,03,14.30
2009,06,03,00,04,14.30
2009,06,03,00,05,14.30
2009,06,03,00,06,14.30
2009,06,03,00,07,14.30
2009,06,03,00,08,14.30
2009,06,03,00,09,14.30
2009,06,03,00,10,14.30
2009,06,03,00,11,14.20
2009,06,03,00,12,14.20
2009,06,03,00,13,14.20
2009,06,03,00,14,14.20
2009,06,03,00,15,14.20
2009,06,03,00,16,14.20
2009,06,03,00,17,14.20
2009,06,03,00,18,14.20
2009,06,03,00,19,14.10
2009,06,03,00,20,14.10
2009,06,03,00,21,14.10
2009,06,03,00,22,14.10
2009,06,03,00,23,14.10
2009,06,03,00,24,14.10
2009,06,03,00,25,14.10
2009,06,03,00,26,14.10
2009,06,03,00,27,14.10
2009,06,03,00,28,14.10
2009,06,03,00,29,14.00
2009,06,03,00,30,14.00
2009,06,03,00,31,14.00
2009,06,03,00,32,14.00
2009,06,03,00,33,14.00
2009,06,03,00,34,14.00
2009,06,03,00,35,13.90
2009,06,03,00,36,13.90
2009,06,03,00,37,13.90
2009,06,03,00,38,13.90
2009,06,03,00,39,13.90
2009,06,03,00,40,13.90
2009,06,03,00,41,13.90
2009,06,03,00,42,13.80
2009,06,03,00,43,13.80
2009,06,03,00,44,13.80
2009,06,03,00,45,13.80
2009,06,03,00,46,13.80
2009,06,03,00,47,13.80
2009,06,03,00,48,13.80
2009,06,03,00,49,13.80
2009,06,03,00,50,13.80
2009,06,03,00,51,13.80
2009,06,03,00,52,13.70
2009,06,03,00,53,13.70
2009,06,03,00,54,13.70
2009,06,03,00,55,13.70
2009,06,03,00,56,13.70
2009,06,03,00,57,13.70
2009,06,03,00,58,13.70
2009,06,03,00,59,13.70
2009,06,03,01,00,13.70
2009,06,03,01,01,13.60
2009,06,03,01,02,13.60
2009,06,03,01,03,13.60
2009,06,03,01,04,13.60
2009,06,03,01,05,13.60
2009,06,03,01,06,13.60
2009,06,03,01,07,13.60
2009,06,03,01,08,13.50
2009,06,03,01,09,13.50
2009,06,03,01,10,13.50
2009,06,03,01,11,13.50
2009,06,03,01,12,13.50
2009,06,03,01,13,13.40
2009,06,03,01,14,13.40
2009,06,03,01,15,13.40
2009,06,03,01,16,13.40
2009,06,03,01,17,13.40
2009,06,03,01,18,13.40
2009,06,03,01,19,13.40
2009,06,03,01,20,13.40
2009,06,03,01,21,13.40
2009,06,03,01,22,13.40
2009,06,03,01,23,13.40
2009,06,03,01,24,13.40
2009,06,03,01,25,13.40
2009,06,03,01,26,13.30
2009,06,03,01,27,13.30
2009,06,03,01,28,13.30
2009,06,03,01,29,13.30
2009,06,03,01,30,13.30
2009,06,03,01,31,13.30
2009,06,03,01,32,13.30
2009,06,03,01,33,13.30
2009,06,03,01,34,13.30
2009,06,03,01,35,13.30
2009,06,03,01,36,13.30
2009,06,03,01,37,13.30
2009,06,03,01,38,13.30
2009,06,03,01,39,13.30
2009,06,03,01,40,13.30
2009,06,03,01,41,13.20
2009,06,03,01,42,13.20
2009,06,03,01,43,13.20
2009,06,03,01,44,13.20
2009,06,03,01,45,13.20
2009,06,03,01,46,13.20
2009,06,03,01,47,13.20
2009,06,03,01,48,13.20
2009,06,03,01,49,13.10
2009,06,03,01,50,13.10
2009,06,03,01,51,13.10
2009,06,03,01,52,13.10
2009,06,03,01,53,13.10
2009,06,03,01,54,13.10
2009,06,03,01,55,13.10
2009,06,03,01,56,13.10
2009,06,03,01,57,13.10
2009,06,03,01,58,13.00
2009,06,03,01,59,13.00
2009,06,03,02,00,13.00
2009,06,03,02,01,13.00
2009,06,03,02,02,13.00
2009,06,03,02,03,13.00
2009,06,03,02,04,12.90
2009,06,03,02,05,12.90
2009,06,03,02,06,12.90
2009,06,03,02,07,12.90
2009,06,03,02,08,12.90
2009,06,03,02,09,12.90
2009,06,03,02,10,12.80
2009,06,03,02,11,12.80
2009,06,03,02,12,12.80
2009,06,03,02,13,12.80
2009,06,03,02,14,12.80
2009,06,03,02,15,12.80
2009,06,03,02,16,12.80
2009,06,03,02,17,12.80
2009,06,03,02,18,12.80
2009,06,03,02,19,12.80
2009,06,03,02,20,12.70
2009,06,03,02,21,12.70
2009,06,03,02,22,12.70
2009,06,03,02,23,12.70
2009,06,03,02,24,12.70
2009,06,03,02,25,12.70
2009,06,03,02,26,12.70
2009,06,03,02,27,12.60
2009,06,03,02,28,12.60
2009,06,03,02,29,12.60
2009,06,03,02,30,12.60
2009,06,03,02,31,12.60
2009,06,03,02,32,12.60
2009,06,03,02,33,12.60
2009,06,03,02,34,12.60
2009,06,03,02,35,12.60
2009,06,03,02,36,12.60
2009,06,03,02,37,12.60
2009,06,03,02,38,12.60
2009,06,03,02,39,12.60
2009,06,03,02,40,12.60
2009,06,03,02,41,12.60
2009,06,03,02,42,12.60
2009,06,03,02,43,12.60
2009,06,03,02,44,12.60
2009,06,03,02,45,12.50
2009,06,03,02,46,12.50
2009,06,03,02,47,12.50
2009,06,03,02,48,12.50
2009,06,03,02,49,12.40
2009,06,03,02,50,12.40
2009,06,03,02,51,12.40
2009,06,03,02,52,12.40
2009,06,03,02,53,12.40
2009,06,03,02,54,12.40
2009,06,03,02,55,12.40
2009,06,03,02,56,12.40
2009,06,03,02,57,12.40
2009,06,03,02,58,12.30
2009,06,03,02,59,12.30
2009,06,03,03,00,12.30
2009,06,03,03,01,12.30
2009,06,03,03,02,12.30
2009,06,03,03,03,12.30
2009,06,03,03,04,12.30
2009,06,03,03,05,12.30
2009,06,03,03,06,12.30
2009,06,03,03,07,12.30
2009,06,03,03,08,12.30
2009,06,03,03,09,12.30
2009,06,03,03,10,12.30
2009,06,03,03,11,12.30
2009,06,03,03,12,12.30
2009,06,03,03,13,12.30
2009,06,03,03,14,12.30
2009,06,03,03,15,12.20
2009,06,03,03,16,12.20
2009,06,03,03,17,12.20
2009,06,03,03,18,12.20
2009,06,03,03,19,12.20
2009,06,03,03,20,12.20
2009,06,03,03,21,12.20
2009,06,03,03,22,12.20
2009,06,03,03,23,12.20
2009,06,03,03,24,12.20
2009,06,03,03,25,12.20
2009,06,03,03,26,12.20
2009,06,03,03,27,12.20
2009,06,03,03,28,12.20
2009,06,03,03,29,12.20
2009,06,03,03,30,12.20
2009,06,03,03,31,12.20
2009,06,03,03,32,12.20
2009,06,03,03,33,12.20
2009,06,03,03,34,12.20
2009,06,03,03,35,12.20
2009,06,03,03,36,12.10
2009,06,03,03,37,12.10
2009,06,03,03,38,12.10
2009,06,03,03,39,12.10
2009,06,03,03,40,12.10
2009,06,03,03,41,12.10
2009,06,03,03,42,12.10
2009,06,03,03,43,12.10
2009,06,03,03,44,12.10
2009,06,03,03,45,12.10
2009,06,03,03,46,12.10
2009,06,03,03,47,12.10
2009,06,03,03,48,12.10
2009,06,03,03,49,12.10
2009,06,03,03,50,12.10
2009,06,03,03,51,12.10
2009,06,03,03,52,12.10
2009,06,03,03,53,12.10
2009,06,03,03,54,12.10
2009,06,03,03,55,12.10
2009,06,03,03,56,12.10
2009,06,03,03,57,12.10
2009,06,03,03,58,12.00
2009,06,03,03,59,12.00
2009,06,03,04,00,12.00
2009,06,03,04,01,12.00
2009,06,03,04,02,12.00
2009,06,03,04,03,11.90
2009,06,03,04,04,11.90
2009,06,03,04,05,11.90
2009,06,03,04,06,11.90
2009,06,03,04,18,11.80
2009,06,03,04,21,11.80
2009,06,03,04,22,11.80
2009,06,03,04,23,11.80
2009,06,03,04,24,11.80
2009,06,03,04,25,11.80
2009,06,03,04,26,11.80
2009,06,03,04,27,11.80
2009,06,03,04,28,11.80
2009,06,03,04,29,11.80
2009,06,03,04,30,11.90
2009,06,03,04,31,11.90
2009,06,03,04,32,11.90
2009,06,03,04,33,12.00
2009,06,03,04,34,12.00
2009,06,03,04,35,12.10
2009,06,03,04,36,12.10
2009,06,03,04,37,12.20
2009,06,03,04,38,12.30
2009,06,03,04,39,12.30
2009,06,03,04,40,12.40
2009,06,03,04,41,12.40
2009,06,03,04,42,12.40
2009,06,03,04,43,12.50
2009,06,03,04,44,12.50
2009,06,03,04,45,12.50
2009,06,03,04,46,12.50
2009,06,03,04,47,12.50
2009,06,03,04,48,12.50
2009,06,03,04,49,12.50
2009,06,03,04,50,12.40
2009,06,03,04,51,12.50
2009,06,03,04,52,12.50
2009,06,03,04,53,12.50
2009,06,03,04,54,12.40
2009,06,03,04,55,12.40
2009,06,03,04,56,12.40
2009,06,03,04,57,12.40
2009,06,03,04,58,12.40
2009,06,03,04,59,12.40
2009,06,03,05,00,12.40
2009,06,03,05,01,12.40
2009,06,03,05,02,12.40
2009,06,03,05,03,12.40
2009,06,03,05,04,12.40
2009,06,03,05,05,12.40
2009,06,03,05,06,12.30
2009,06,03,05,07,12.30
2009,06,03,05,08,12.30
2009,06,03,05,09,12.30
2009,06,03,05,10,12.30
2009,06,03,05,11,12.20
2009,06,03,05,12,12.20
2009,06,03,05,13,12.20
2009,06,03,05,14,12.20
2009,06,03,05,15,12.10
2009,06,03,05,16,12.10
2009,06,03,05,17,12.10
2009,06,03,05,18,12.10
2009,06,03,05,19,12.10
2009,06,03,05,20,12.00
2009,06,03,05,21,12.00
2009,06,03,05,22,11.90
2009,06,03,05,23,11.90
2009,06,03,05,24,11.90
2009,06,03,05,25,11.90
2009,06,03,05,26,11.90
2009,06,03,05,27,11.80
2009,06,03,05,28,11.80
2009,06,03,05,29,11.80
2009,06,03,05,30,11.80
2009,06,03,05,31,11.80
2009,06,03,05,32,11.80
2009,06,03,05,33,11.80
2009,06,03,05,34,11.80
2009,06,03,05,35,11.80
2009,06,03,05,36,11.80
2009,06,03,05,37,11.80
2009,06,03,05,38,11.80
2009,06,03,05,39,11.80
2009,06,03,05,40,11.80
2009,06,03,05,41,11.80
2009,06,03,05,42,11.80
2009,06,03,05,43,11.90
2009,06,03,05,44,11.90
2009,06,03,05,45,11.90
2009,06,03,05,46,11.90
2009,06,03,05,47,11.90
2009,06,03,05,48,11.90
2009,06,03,05,49,11.90
2009,06,03,05,50,11.90
2009,06,03,05,51,12.00
2009,06,03,05,52,12.00
2009,06,03,05,53,12.00
2009,06,03,05,54,12.10
2009,06,03,05,55,12.10
2009,06,03,05,56,12.10
2009,06,03,05,57,12.10
2009,06,03,05,58,12.20
2009,06,03,05,59,12.30
2009,06,03,06,00,12.30
2009,06,03,06,01,12.40
2009,06,03,06,02,12.40
2009,06,03,06,03,12.40
2009,06,03,06,04,12.50
2009,06,03,06,05,12.60
2009,06,03,06,06,12.70
2009,06,03,06,07,12.80
2009,06,03,06,08,13.00
2009,06,03,06,09,13.30
2009,06,03,06,10,13.40
2009,06,03,06,11,13.50
2009,06,03,06,12,13.70
2009,06,03,06,13,13.80
2009,06,03,06,14,13.90
2009,06,03,06,15,14.00
2009,06,03,06,16,14.10
2009,06,03,06,17,14.30
2009,06,03,06,18,14.50
2009,06,03,06,19,14.60
2009,06,03,06,20,14.80
2009,06,03,06,21,15.00
2009,06,03,06,22,15.00
2009,06,03,06,23,15.00
2009,06,03,06,24,15.00
2009,06,03,06,25,15.00
2009,06,03,06,26,15.10
2009,06,03,06,27,15.20
2009,06,03,06,28,15.20
2009,06,03,06,29,15.30
2009,06,03,06,30,15.30
2009,06,03,06,31,15.40
2009,06,03,06,32,15.40
2009,06,03,06,33,15.40
2009,06,03,06,34,15.40
2009,06,03,06,35,15.50
2009,06,03,06,36,15.50
2009,06,03,06,37,15.60
2009,06,03,06,38,15.60
2009,06,03,06,39,15.60
2009,06,03,06,40,15.60
2009,06,03,06,41,15.70
2009,06,03,06,42,15.80
2009,06,03,06,43,15.80
2009,06,03,06,44,15.80
2009,06,03,06,45,15.80
2009,06,03,06,46,15.90
2009,06,03,06,47,15.90
2009,06,03,06,48,16.10
2009,06,03,06,49,16.20
2009,06,03,06,50,16.30
2009,06,03,06,51,16.40
2009,06,03,06,52,16.60
2009,06,03,06,53,16.60
2009,06,03,06,54,16.70
2009,06,03,06,55,16.70
2009,06,03,06,56,16.80
2009,06,03,06,57,16.80
2009,06,03,06,58,16.80
2009,06,03,06,59,16.80
2009,06,03,07,00,16.80
2009,06,03,07,01,16.90
2009,06,03,07,02,16.90
2009,06,03,07,03,17.00
2009,06,03,07,04,17.10
2009,06,03,07,05,17.10
2009,06,03,07,06,17.10
2009,06,03,07,07,17.10
2009,06,03,07,08,17.10
2009,06,03,07,09,17.10
2009,06,03,07,10,17.10
2009,06,03,07,11,17.10
2009,06,03,07,12,17.10
2009,06,03,07,13,17.10
2009,06,03,07,14,17.10
2009,06,03,07,15,17.10
2009,06,03,07,16,17.10
2009,06,03,07,17,17.10
2009,06,03,07,18,17.20
2009,06,03,07,19,17.30
2009,06,03,07,20,17.40
2009,06,03,07,21,17.50
2009,06,03,07,22,17.60
2009,06,03,07,23,17.70
2009,06,03,07,24,17.80
2009,06,03,07,25,17.90
2009,06,03,07,26,18.00
2009,06,03,07,27,18.00
2009,06,03,07,28,18.10
2009,06,03,07,29,18.20
2009,06,03,07,30,18.40
2009,06,03,07,31,18.50
2009,06,03,07,32,18.70
2009,06,03,07,33,18.90
2009,06,03,07,34,19.10
2009,06,03,07,35,19.30
2009,06,03,07,36,19.40
2009,06,03,07,37,19.60
2009,06,03,07,38,19.70
2009,06,03,07,39,19.80
2009,06,03,07,40,19.90
2009,06,03,07,41,20.00
2009,06,03,07,42,20.10
2009,06,03,07,43,20.20
2009,06,03,07,44,20.20
2009,06,03,07,45,20.30
2009,06,03,07,46,20.30
2009,06,03,07,47,20.40
2009,06,03,07,48,20.40
2009,06,03,07,49,20.40
2009,06,03,07,50,20.50
2009,06,03,07,51,20.60
2009,06,03,07,52,20.60
2009,06,03,07,53,20.70
2009,06,03,07,54,20.70
2009,06,03,07,55,20.70
2009,06,03,07,56,20.80
2009,06,03,07,57,20.80
2009,06,03,07,58,20.80
2009,06,03,07,59,20.80
2009,06,03,08,00,20.90
2009,06,03,08,01,20.90
2009,06,03,08,02,21.00
2009,06,03,08,03,21.10
2009,06,03,08,04,21.10
2009,06,03,08,05,21.20
2009,06,03,08,06,21.20
2009,06,03,08,07,21.20
2009,06,03,08,08,21.30
2009,06,03,08,09,21.30
2009,06,03,08,10,21.40
2009,06,03,08,11,21.40
2009,06,03,08,12,21.40
2009,06,03,08,13,21.50
2009,06,03,08,14,21.50
2009,06,03,08,15,21.50
2009,06,03,08,16,21.40
2009,06,03,08,17,21.50
2009,06,03,08,18,21.50
2009,06,03,08,19,21.50
2009,06,03,08,20,21.60
2009,06,03,08,21,21.70
2009,06,03,08,22,21.70
2009,06,03,08,23,21.80
2009,06,03,08,24,21.80
2009,06,03,08,25,21.90
2009,06,03,08,26,21.90
2009,06,03,08,27,21.90
2009,06,03,08,28,21.90
2009,06,03,08,29,21.90
2009,06,03,08,30,21.80
2009,06,03,08,31,21.80
2009,06,03,08,32,21.80
2009,06,03,08,33,21.80
2009,06,03,08,34,21.80
2009,06,03,08,35,21.80
2009,06,03,08,36,21.90
2009,06,03,08,37,21.90
2009,06,03,08,38,22.00
2009,06,03,08,39,22.00
2009,06,03,08,40,22.10
2009,06,03,08,41,22.10
2009,06,03,08,42,22.20
2009,06,03,08,43,22.20
2009,06,03,08,44,22.30
2009,06,03,08,45,22.30
2009,06,03,08,46,22.30
2009,06,03,08,47,22.40
2009,06,03,08,48,22.40
2009,06,03,08,49,22.50
2009,06,03,08,50,22.50
2009,06,03,08,51,22.60
2009,06,03,08,52,22.60
2009,06,03,08,53,22.60
2009,06,03,08,54,22.60
2009,06,03,08,55,22.60
2009,06,03,08,56,22.60
2009,06,03,08,57,22.60
2009,06,03,08,58,22.60
2009,06,03,08,59,22.60
2009,06,03,09,00,22.60
2009,06,03,09,01,22.60
2009,06,03,09,02,22.70
2009,06,03,09,03,22.70
2009,06,03,09,04,22.80
2009,06,03,09,05,22.80
2009,06,03,09,06,22.80
2009,06,03,09,07,22.80
2009,06,03,09,08,22.80
2009,06,03,09,09,22.80
2009,06,03,09,10,22.80
2009,06,03,09,11,22.90
2009,06,03,09,12,22.90
2009,06,03,09,13,23.00
2009,06,03,09,14,23.00
2009,06,03,09,15,23.10
2009,06,03,09,16,23.10
2009,06,03,09,17,23.10
2009,06,03,09,18,23.10
2009,06,03,09,19,23.20
2009,06,03,09,20,23.20
2009,06,03,09,21,23.20
2009,06,03,09,22,23.20
2009,06,03,09,23,23.20
2009,06,03,09,24,23.30
2009,06,03,09,25,23.30
2009,06,03,09,26,23.30
2009,06,03,09,27,23.30
2009,06,03,09,28,23.30
2009,06,03,09,29,23.30
2009,06,03,09,30,23.30
2009,06,03,09,31,23.30
2009,06,03,09,32,23.40
2009,06,03,09,33,23.40
2009,06,03,09,34,23.40
2009,06,03,09,35,23.40
2009,06,03,09,36,23.40
2009,06,03,09,37,23.40
2009,06,03,09,38,23.40
2009,06,03,09,39,23.40
2009,06,03,09,40,23.50
2009,06,03,09,41,23.50
2009,06,03,09,42,23.60
2009,06,03,09,43,23.60
2009,06,03,09,44,23.50
2009,06,03,09,45,23.50
2009,06,03,09,46,23.50
2009,06,03,09,47,23.50
2009,06,03,09,48,23.50
2009,06,03,09,49,23.50
2009,06,03,09,50,23.60
2009,06,03,09,51,23.60
2009,06,03,09,52,23.70
2009,06,03,09,53,23.70
2009,06,03,09,54,23.70
2009,06,03,09,55,23.70
2009,06,03,09,56,23.70
2009,06,03,09,57,23.70
2009,06,03,09,58,23.70
2009,06,03,09,59,23.80
2009,06,03,10,00,23.80
2009,06,03,10,01,23.80
2009,06,03,10,02,23.80
2009,06,03,10,03,23.90
2009,06,03,10,04,24.00
2009,06,03,10,05,24.00
2009,06,03,10,06,24.10
2009,06,03,10,07,24.10
2009,06,03,10,08,24.00
2009,06,03,10,09,24.00
2009,06,03,10,10,24.10
2009,06,03,10,11,24.20
2009,06,03,10,12,24.20
2009,06,03,10,13,24.30
2009,06,03,10,14,24.30
2009,06,03,10,15,24.40
2009,06,03,10,16,24.50
2009,06,03,10,17,24.50
2009,06,03,10,18,24.60
2009,06,03,10,19,24.60
2009,06,03,10,20,24.70
2009,06,03,10,21,24.80
2009,06,03,10,22,24.80
2009,06,03,10,23,24.80
2009,06,03,10,24,24.80
2009,06,03,10,25,24.80
2009,06,03,10,26,24.80
2009,06,03,10,27,24.80
2009,06,03,10,28,24.90
2009,06,03,10,29,25.00
2009,06,03,10,30,25.00
2009,06,03,10,31,25.10
2009,06,03,10,32,25.10
2009,06,03,10,33,25.20
2009,06,03,10,34,25.20
2009,06,03,10,35,25.20
2009,06,03,10,36,25.20
2009,06,03,10,37,25.10
2009,06,03,10,38,25.10
2009,06,03,10,39,25.10
2009,06,03,10,40,25.00
2009,06,03,10,41,25.10
2009,06,03,10,42,25.10
2009,06,03,10,43,25.10
2009,06,03,10,44,25.20
2009,06,03,10,45,25.20
2009,06,03,10,46,25.20
2009,06,03,10,47,25.20
2009,06,03,10,48,25.10
2009,06,03,10,49,25.10
2009,06,03,10,50,25.10
2009,06,03,10,51,25.10
2009,06,03,10,52,25.10
2009,06,03,10,53,25.10
2009,06,03,10,54,25.10
2009,06,03,10,55,25.20
2009,06,03,10,56,25.20
2009,06,03,10,57,25.20
2009,06,03,10,58,25.30
2009,06,03,10,59,25.30
2009,06,03,11,00,25.20
2009,06,03,11,01,25.20
2009,06,03,11,02,25.20
2009,06,03,11,03,25.10
2009,06,03,11,04,25.10
2009,06,03,11,05,25.10
2009,06,03,11,06,25.10
2009,06,03,11,07,25.10
2009,06,03,11,08,25.20
2009,06,03,11,09,25.20
2009,06,03,11,10,25.30
2009,06,03,11,11,25.40
2009,06,03,11,12,25.50
2009,06,03,11,13,25.60
2009,06,03,11,14,25.60
2009,06,03,11,15,25.60
2009,06,03,11,16,25.50
2009,06,03,11,17,25.40
2009,06,03,11,18,25.30
2009,06,03,11,19,25.30
2009,06,03,11,20,25.20
2009,06,03,11,21,25.20
2009,06,03,11,22,25.20
2009,06,03,11,23,25.30
2009,06,03,11,24,25.30
2009,06,03,11,25,25.40
2009,06,03,11,26,25.40
2009,06,03,11,27,25.30
2009,06,03,11,28,25.20
2009,06,03,11,29,25.20
2009,06,03,11,30,25.20
2009,06,03,11,31,25.20
2009,06,03,11,32,25.20
2009,06,03,11,33,25.20
2009,06,03,11,34,25.20
2009,06,03,11,35,25.20
2009,06,03,11,36,25.30
2009,06,03,11,37,25.40
2009,06,03,11,38,25.40
2009,06,03,11,39,25.40
2009,06,03,11,40,25.40
2009,06,03,11,41,25.40
2009,06,03,11,42,25.40
2009,06,03,11,43,25.40
2009,06,03,11,44,25.40
2009,06,03,11,45,25.40
2009,06,03,11,46,25.40
2009,06,03,11,47,25.40
2009,06,03,11,48,25.50
2009,06,03,11,49,25.50
2009,06,03,11,50,25.50
2009,06,03,11,51,25.50
2009,06,03,11,52,25.60
2009,06,03,11,53,25.70
2009,06,03,11,54,25.70
2009,06,03,11,55,25.80
2009,06,03,11,56,25.90
2009,06,03,11,57,25.90
2009,06,03,11,58,25.90
2009,06,03,11,59,26.00
2009,06,03,12,00,26.00
2009,06,03,12,01,26.00
2009,06,03,12,02,25.90
2009,06,03,12,03,25.90
2009,06,03,12,04,25.90
2009,06,03,12,05,25.80
2009,06,03,12,06,25.70
2009,06,03,12,07,25.70
2009,06,03,12,08,25.80
2009,06,03,12,09,25.80
2009,06,03,12,10,25.90
2009,06,03,12,11,26.00
2009,06,03,12,12,26.10
2009,06,03,12,13,26.30
2009,06,03,12,14,26.40
2009,06,03,12,15,26.60
2009,06,03,12,16,26.80
2009,06,03,12,17,26.90
2009,06,03,12,18,27.00
2009,06,03,12,19,27.00
2009,06,03,12,20,27.00
2009,06,03,12,21,26.90
2009,06,03,12,22,26.90
2009,06,03,12,23,26.80
2009,06,03,12,24,26.80
2009,06,03,12,25,26.90
2009,06,03,12,26,27.00
2009,06,03,12,27,27.00
2009,06,03,12,28,27.10
2009,06,03,12,29,27.10
2009,06,03,12,30,27.00
2009,06,03,12,31,26.90
2009,06,03,12,32,27.00
2009,06,03,12,33,27.00
2009,06,03,12,34,27.00
2009,06,03,12,35,27.00
2009,06,03,12,36,27.10
2009,06,03,12,37,27.00
2009,06,03,12,38,27.00
2009,06,03,12,39,27.00
2009,06,03,12,40,26.90
2009,06,03,12,41,26.90
2009,06,03,12,42,26.90
2009,06,03,12,43,27.00
2009,06,03,12,44,27.10
2009,06,03,12,45,27.10
2009,06,03,12,46,27.20
2009,06,03,12,47,27.30
2009,06,03,12,48,27.40
2009,06,03,12,49,27.50
2009,06,03,12,50,27.60
2009,06,03,12,51,27.70
2009,06,03,12,52,27.70
2009,06,03,12,53,27.70
2009,06,03,12,54,27.60
2009,06,03,12,55,27.40
2009,06,03,12,56,27.20
2009,06,03,12,57,27.10
2009,06,03,12,58,27.10
2009,06,03,12,59,27.20
2009,06,03,13,00,27.20
2009,06,03,13,01,27.20
2009,06,03,13,02,27.20
2009,06,03,13,03,27.10
2009,06,03,13,04,27.10
2009,06,03,13,05,27.10
2009,06,03,13,06,27.10
2009,06,03,13,07,27.20
2009,06,03,13,08,27.30
2009,06,03,13,09,27.40
2009,06,03,13,10,27.40
2009,06,03,13,11,27.40
2009,06,03,13,12,27.40
2009,06,03,13,13,27.40
2009,06,03,13,14,27.40
2009,06,03,13,15,27.40
2009,06,03,13,16,27.30
2009,06,03,13,17,27.30
2009,06,03,13,18,27.20
2009,06,03,13,19,27.10
2009,06,03,13,20,27.10
2009,06,03,13,21,27.10
2009,06,03,13,22,27.10
2009,06,03,13,23,27.10
2009,06,03,13,24,27.10
2009,06,03,13,25,27.20
2009,06,03,13,26,27.30
2009,06,03,13,27,27.40
2009,06,03,13,28,27.50
2009,06,03,13,29,27.60
2009,06,03,13,30,27.70
2009,06,03,13,31,27.80
2009,06,03,13,32,27.90
2009,06,03,13,33,28.00
2009,06,03,13,34,28.00
2009,06,03,13,35,28.10
2009,06,03,13,36,28.10
2009,06,03,13,37,28.20
2009,06,03,13,38,28.30
2009,06,03,13,39,28.40
2009,06,03,13,40,28.60
2009,06,03,13,41,28.70
2009,06,03,13,42,28.70
2009,06,03,13,43,28.80
2009,06,03,13,44,28.80
2009,06,03,13,45,28.80
2009,06,03,13,46,28.90
2009,06,03,13,47,29.00
2009,06,03,13,48,29.00
2009,06,03,13,49,28.90
2009,06,03,13,50,28.90
2009,06,03,13,51,28.70
2009,06,03,13,52,28.70
2009,06,03,13,53,28.60
2009,06,03,13,54,28.50
2009,06,03,13,55,28.50
2009,06,03,13,56,28.40
2009,06,03,13,57,28.40
2009,06,03,13,58,28.50
2009,06,03,13,59,28.60
2009,06,03,14,00,28.60
2009,06,03,14,01,28.60
2009,06,03,14,02,28.40
2009,06,03,14,03,28.30
2009,06,03,14,04,28.20
2009,06,03,14,05,28.20
2009,06,03,14,06,28.20
2009,06,03,14,07,28.20
2009,06,03,14,08,28.20
2009,06,03,14,09,28.30
2009,06,03,14,10,28.40
2009,06,03,14,11,28.40
2009,06,03,14,12,28.50
2009,06,03,14,13,28.60
2009,06,03,14,14,28.60
2009,06,03,14,15,28.60
2009,06,03,14,16,28.70
2009,06,03,14,17,28.70
2009,06,03,14,18,28.80
2009,06,03,14,19,28.80
2009,06,03,14,20,29.00
2009,06,03,14,21,29.10
2009,06,03,14,22,29.20
2009,06,03,14,23,29.40
2009,06,03,14,24,29.60
2009,06,03,14,25,29.70
2009,06,03,14,26,29.90
2009,06,03,14,27,29.90
2009,06,03,14,28,29.80
2009,06,03,14,29,29.70
2009,06,03,14,30,29.70
2009,06,03,14,31,29.60
2009,06,03,14,32,29.70
2009,06,03,14,33,29.70
2009,06,03,14,34,29.70
2009,06,03,14,35,29.70
2009,06,03,14,36,29.70
2009,06,03,14,37,29.60
2009,06,03,14,38,29.50
2009,06,03,14,39,29.50
2009,06,03,14,40,29.50
2009,06,03,14,41,29.50
2009,06,03,14,42,29.40
2009,06,03,14,43,29.50
2009,06,03,14,44,29.50
2009,06,03,14,45,29.60
2009,06,03,14,46,29.70
2009,06,03,14,47,29.80
2009,06,03,14,48,29.90
2009,06,03,14,49,30.00
2009,06,03,14,50,30.00
2009,06,03,14,51,30.00
2009,06,03,14,52,29.90
2009,06,03,14,53,29.80
2009,06,03,14,54,29.70
2009,06,03,14,55,29.70
2009,06,03,14,56,29.70
2009,06,03,14,57,29.70
2009,06,03,14,58,29.70
2009,06,03,14,59,29.80
2009,06,03,15,00,29.90
2009,06,03,15,01,30.10
2009,06,03,15,02,30.20
2009,06,03,15,03,30.20
2009,06,03,15,04,30.20
2009,06,03,15,05,30.20
2009,06,03,15,06,30.20
2009,06,03,15,07,30.10
2009,06,03,15,08,30.00
2009,06,03,15,09,29.90
2009,06,03,15,10,29.90
2009,06,03,15,11,29.80
2009,06,03,15,12,29.80
2009,06,03,15,13,29.70
2009,06,03,15,14,29.60
2009,06,03,15,15,29.60
2009,06,03,15,16,29.60
2009,06,03,15,17,29.70
2009,06,03,15,18,29.70
2009,06,03,15,19,29.60
2009,06,03,15,20,29.50
2009,06,03,15,21,29.50
2009,06,03,15,22,29.50
2009,06,03,15,23,29.50
2009,06,03,15,24,29.50
2009,06,03,15,25,29.40
2009,06,03,15,26,29.40
2009,06,03,15,27,29.40
2009,06,03,15,28,29.50
2009,06,03,15,29,29.50
2009,06,03,15,30,29.60
2009,06,03,15,31,29.70
2009,06,03,15,32,29.80
2009,06,03,15,33,29.90
2009,06,03,15,34,29.90
2009,06,03,15,35,30.00
2009,06,03,15,36,30.00
2009,06,03,15,37,30.10
2009,06,03,15,38,30.10
2009,06,03,15,39,30.00
2009,06,03,15,40,30.00
2009,06,03,15,41,30.00
2009,06,03,15,42,29.90
2009,06,03,15,43,29.90
2009,06,03,15,44,29.90
2009,06,03,15,45,29.80
2009,06,03,15,46,29.80
2009,06,03,15,47,29.80
2009,06,03,15,48,29.80
2009,06,03,15,49,29.70
2009,06,03,15,50,29.70
2009,06,03,15,51,29.70
2009,06,03,15,52,29.80
2009,06,03,15,53,29.90
2009,06,03,15,54,30.00
2009,06,03,15,55,30.10
2009,06,03,15,56,30.20
2009,06,03,15,57,30.30
2009,06,03,15,58,30.30
2009,06,03,15,59,30.40
2009,06,03,16,00,30.30
2009,06,03,16,01,30.30
2009,06,03,16,02,30.20
2009,06,03,16,03,30.20
2009,06,03,16,04,30.20
2009,06,03,16,05,30.20
2009,06,03,16,06,30.20
2009,06,03,16,07,30.10
2009,06,03,16,08,30.00
2009,06,03,16,09,30.00
2009,06,03,16,10,30.00
2009,06,03,16,11,29.90
2009,06,03,16,12,29.80
2009,06,03,16,13,29.80
2009,06,03,16,14,29.70
2009,06,03,16,15,29.70
2009,06,03,16,16,29.70
2009,06,03,16,17,29.70
2009,06,03,16,18,29.70
2009,06,03,16,19,29.70
2009,06,03,16,20,29.70
2009,06,03,16,21,29.80
2009,06,03,16,22,29.80
2009,06,03,16,23,29.80
2009,06,03,16,24,29.80
2009,06,03,16,25,29.80
2009,06,03,16,26,29.80
2009,06,03,16,27,29.80
2009,06,03,16,28,29.80
2009,06,03,16,29,29.80
2009,06,03,16,30,29.80
2009,06,03,16,31,29.80
2009,06,03,16,32,29.80
2009,06,03,16,33,29.80
2009,06,03,16,34,29.80
2009,06,03,16,35,29.70
2009,06,03,16,36,29.70
2009,06,03,16,37,29.70
2009,06,03,16,38,29.70
2009,06,03,16,39,29.60
2009,06,03,16,40,29.60
2009,06,03,16,41,29.50
2009,06,03,16,42,29.40
2009,06,03,16,43,29.40
2009,06,03,16,44,29.40
2009,06,03,16,45,29.40
2009,06,03,16,46,29.40
2009,06,03,16,47,29.40
2009,06,03,16,48,29.40
2009,06,03,16,49,29.40
2009,06,03,16,50,29.40
2009,06,03,16,51,29.40
2009,06,03,16,52,29.40
2009,06,03,16,53,29.40
2009,06,03,16,54,29.40
2009,06,03,16,55,29.40
2009,06,03,16,56,29.40
2009,06,03,16,57,29.40
2009,06,03,16,58,29.50
2009,06,03,16,59,29.50
2009,06,03,17,00,29.50
2009,06,03,17,01,29.40
2009,06,03,17,02,29.40
2009,06,03,17,03,29.50
2009,06,03,17,04,29.50
2009,06,03,17,05,29.50
2009,06,03,17,06,29.50
2009,06,03,17,07,29.50
2009,06,03,17,08,29.60
2009,06,03,17,09,29.60
2009,06,03,17,10,29.60
2009,06,03,17,11,29.60
2009,06,03,17,12,29.60
2009,06,03,17,13,29.60
2009,06,03,17,14,29.70
2009,06,03,17,15,29.70
2009,06,03,17,16,29.70
2009,06,03,17,17,29.70
2009,06,03,17,18,29.70
2009,06,03,17,19,29.70
2009,06,03,17,20,29.60
2009,06,03,17,21,29.50
2009,06,03,17,22,29.40
2009,06,03,17,23,29.40
2009,06,03,17,24,29.30
2009,06,03,17,25,29.30
2009,06,03,17,26,29.30
2009,06,03,17,27,29.30
2009,06,03,17,28,29.30
2009,06,03,17,29,29.30
2009,06,03,17,30,29.30
2009,06,03,17,31,29.30
2009,06,03,17,32,29.30